GW6793 Weather Reports


time (UTC)temp
F
wind
direction
speed
knots
gust
knots
rain 1hr
in
rain 24hr
in
rain mn
in
humidity
%
barometer
mb
20260506102958 74 199 0.9 5.2 0.00 0.00 0.00 93 1007.7
20260506102458 74 202 0.9 5.2 0.00 0.00 0.00 92 1007.7
20260506101958 74 180 0.9 3.5 0.00 0.00 0.00 92 1007.6
20260506101458 74 164 0.9 3.5 0.00 0.00 0.00 92 1007.6
20260506100958 74 183 0.9 4.3 0.00 0.00 0.00 92 1007.6
20260506100000 74 225 0.9 2.6 0.00 0.00 0.00 92 1007.5
20260506095458 74 203 0.9 4.3 0.00 0.00 0.00 92 1007.6
20260506095000 74 195 0.9 4.3 0.00 0.00 0.00 92 1007.6
20260506094459 74 173 0.9 3.5 0.00 0.00 0.00 92 1007.5
20260506093458 74 202 1.7 4.3 0.00 0.00 0.00 91 1007.4
20260506092958 74 215 1.7 4.3 0.00 0.00 0.00 91 1007.4
20260506092459 74 213 1.7 4.3 0.00 0.00 0.00 91 1007.4
20260506091458 74 183 0.9 4.3 0.00 0.00 0.00 91 1007.4
20260506090958 74 120 0.9 3.5 0.00 0.00 0.00 91 1007.4
20260506090000 74 213 0.9 3.5 0.00 0.00 0.00 91 1007.4
20260506085458 74 227 0.9 4.3 0.00 0.00 0.00 91 1007.4
20260506084958 74 219 0.9 3.5 0.00 0.00 0.00 91 1007.5
20260506084458 74 64 0.9 3.5 0.00 0.00 0.00 91 1007.6
20260506083959 74 207 0.9 3.5 0.00 0.00 0.00 91 1007.5
20260506083458 74 211 0.9 1.7 0.00 0.00 0.00 90 1007.4
20260506082958 74 215 0.9 3.5 0.00 0.00 0.00 90 1007.5
20260506081958 74 203 1.7 5.2 0.00 0.00 0.00 90 1007.5
20260506081458 74 194 0.9 5.2 0.00 0.00 0.00 90 1007.6
20260506073457 74 234 0.9 3.5 0.00 0.00 0.00 89 1007.9
20260506072957 74 237 0.9 3.5 0.00 0.00 0.00 89 1008.0
20260506072457 74 186 0.9 6.1 0.00 0.00 0.00 89 1007.9
20260506071957 74 220 1.7 6.1 0.00 0.00 0.00 89 1008.0
20260506071457 74 211 0.9 4.3 0.00 0.00 0.00 89 1008.0
20260506070957 74 170 0.9 3.5 0.00 0.00 0.00 89 1008.0
20260506070458 74 206 1.7 4.3 0.00 0.00 0.00 89 1008.1
20260506062456 75 237 1.7 7.0 0.00 0.00 0.00 88 1008.4
20260506060957 75 216 1.7 4.3 0.00 0.00 0.00 87 1008.4
20260506060457 75 200 0.9 4.3 0.00 0.00 0.00 87 1008.4
20260506051005 75 199 1.7 4.3 0.00 0.00 0.00 86 1008.8
20260506050504 75 111 1.7 7.8 0.00 0.00 0.00 86 1008.7
20260506045005 76 200 2.6 6.1 0.00 0.00 0.00 86 1008.7
20260506044504 76 188 2.6 5.2 0.00 0.00 0.00 85 1008.6
20260506042505 76 202 0.9 5.2 0.00 0.00 0.00 85 1008.5
20260506042004 76 233 0.9 4.3 0.00 0.00 0.00 85 1008.5
20260506041504 76 198 0.9 3.5 0.00 0.00 0.00 85 1008.5
20260506041004 76 193 0.9 3.5 0.00 0.00 0.00 85 1008.6
20260506040504 76 225 0.9 3.5 0.00 0.00 0.00 85 1008.6
20260506040005 76 209 0.9 2.6 0.00 0.00 0.00 85 1008.6
20260506035504 76 227 0.9 2.6 0.00 0.00 0.00 85 1008.5
20260506035004 76 230 0.9 1.7 0.00 0.00 0.00 85 1008.5
20260506034506 76 190 0.9 3.5 0.00 0.00 0.00 85 1008.5
20260506034004 76 235 0.9 4.3 0.00 0.00 0.00 85 1008.5
20260506033002 76 217 0.9 1.7 0.00 0.00 0.00 85 1008.3
20260506032504 76 221 0.9 2.6 0.00 0.00 0.00 85 1008.1
20260506032004 76 179 0.9 3.5 0.00 0.00 0.00 84 1008.0
20260506031505 76 202 0.9 3.5 0.00 0.00 0.00 84 1008.0
20260506031004 76 210 0.9 4.3 0.00 0.00 0.00 84 1008.0
20260506030504 76 162 1.7 4.3 0.00 0.00 0.00 84 1007.9
20260506030005 76 190 0.9 4.3 0.00 0.00 0.00 84 1007.7
20260506025504 76 197 1.7 3.5 0.00 0.00 0.00 84 1007.7
20260506025005 76 261 1.7 7.0 0.00 0.00 0.00 84 1007.5
20260506024505 76 193 1.7 7.0 0.00 0.00 0.00 84 1007.4
20260506024004 76 54 0.9 4.3 0.00 0.00 0.00 84 1007.4
20260506023504 76 209 1.7 4.3 0.00 0.00 0.00 84 1007.3
20260506023004 77 222 1.7 8.7 0.00 0.00 0.00 84 1007.2
20260506022504 77 159 1.7 8.7 0.00 0.00 0.00 84 1007.2
20260506022003 77 221 1.7 7.8 0.00 0.00 0.00 83 1007.1
20260506021504 77 173 1.7 7.8 0.00 0.00 0.00 83 1007.1
20260506021004 77 242 0.9 4.3 0.00 0.00 0.00 83 1007.1
20260506015003 77 198 0.9 4.3 0.00 0.00 0.00 83 1006.8
20260506014502 77 223 1.7 4.3 0.00 0.00 0.00 83 1006.8
20260506014004 77 196 1.7 3.5 0.00 0.00 0.00 83 1006.7
20260506013503 77 192 1.7 7.0 0.00 0.00 0.00 82 1006.7
20260506013003 77 179 1.7 7.0 0.00 0.00 0.00 82 1006.6
20260506012503 77 219 1.7 7.0 0.00 0.00 0.00 82 1006.6
20260506012003 77 194 1.7 7.8 0.00 0.00 0.00 82 1006.5
20260506011503 77 122 1.7 7.8 0.00 0.00 0.00 82 1006.5
20260506011003 77 170 1.7 7.8 0.00 0.00 0.00 82 1006.4
20260506010504 78 211 1.7 7.8 0.00 0.00 0.00 81 1006.4
20260506010003 78 155 0.9 7.8 0.00 0.00 0.00 81 1006.3
20260506005503 78 231 0.9 2.6 0.00 0.00 0.00 81 1006.2
20260506005003 78 229 1.7 4.3 0.00 0.00 0.00 81 1006.1
20260506004503 78 171 1.7 7.0 0.00 0.00 0.00 80 1006.1
20260506004003 78 190 1.7 7.8 0.00 0.00 0.00 80 1006.0
20260506002502 79 225 1.7 10.4 0.00 0.00 0.00 79 1006.0
20260506002003 79 171 1.7 5.2 0.00 0.00 0.00 79 1005.9
20260506001504 79 59 1.7 5.2 0.00 0.00 0.00 79 1005.9
20260506000503 79 146 3.5 9.6 0.00 0.00 0.00 78 1005.8
20260506000002 80 184 2.6 7.8 0.00 0.00 0.00 77 1005.7
20260505235503 80 176 1.7 6.1 0.00 0.00 0.00 77 1005.6
20260505235003 80 92 1.7 6.1 0.00 0.00 0.00 77 1005.6
20260505234502 80 217 2.6 12.2 0.00 0.00 0.00 77 1005.6
20260505233503 80 180 2.6 8.7 0.00 0.00 0.00 77 1005.6
20260505232502 81 144 2.6 8.7 0.00 0.00 0.00 76 1005.6
20260505232004 81 215 2.6 8.7 0.00 0.00 0.00 75 1005.6
20260505231502 82 118 2.6 7.8 0.00 0.00 0.00 74 1005.6
20260505231003 82 172 2.6 7.0 0.00 0.00 0.00 74 1005.5
20260505230503 82 169 2.6 7.0 0.00 0.00 0.00 74 1005.5
20260505230002 82 159 2.6 9.6 0.00 0.00 0.00 74 1005.6
20260505225002 82 205 3.5 12.2 0.00 0.00 0.00 74 1005.5
20260505224502 82 170 2.6 12.2 0.00 0.00 0.00 74 1005.3
20260505224002 82 201 2.6 7.8 0.00 0.00 0.00 73 1005.3
20260505223504 82 224 3.5 8.7 0.00 0.00 0.00 74 1005.5
20260505223002 83 164 3.5 8.7 0.00 0.00 0.00 73 1005.5
20260505222502 83 215 3.5 10.4 0.00 0.00 0.00 73 1005.6
20260505222002 82 171 3.5 9.6 0.00 0.00 0.00 73 1005.7
20260505221502 82 159 3.5 9.6 0.00 0.00 0.00 73 1005.6
20260505221003 83 180 2.6 8.7 0.00 0.00 0.00 73 1005.7
20260505220501 83 171 2.6 7.8 0.00 0.00 0.00 72 1005.8
20260505215502 83 213 2.6 9.6 0.00 0.00 0.00 72 1005.8
20260505215003 83 224 2.6 9.6 0.00 0.00 0.00 71 1005.8
20260505214001 83 209 2.6 9.6 0.00 0.00 0.00 71 1005.9
20260505213502 84 105 2.6 7.8 0.00 0.00 0.00 70 1006.0
20260505213002 84 119 3.5 10.4 0.00 0.00 0.00 70 1006.2
20260505212502 84 146 3.5 10.4 0.00 0.00 0.00 71 1006.2
20260505212001 84 229 3.5 14.8 0.00 0.00 0.00 72 1006.2
20260505211501 84 169 2.6 14.8 0.00 0.00 0.00 71 1006.3
20260505211003 84 144 1.7 6.1 0.00 0.00 0.00 73 1006.4
20260505210006 83 172 2.6 7.8 0.00 0.00 0.00 72 1006.7
20260505205503 83 217 2.6 7.8 0.00 0.00 0.00 72 1006.8
20260505205002 83 198 2.6 8.7 0.00 0.00 0.00 72 1006.9
20260505204502 83 119 2.6 8.7 0.00 0.00 0.00 71 1007.0
20260505204002 84 163 2.6 8.7 0.00 0.00 0.00 71 1007.1
20260505203502 83 201 2.6 7.8 0.00 0.00 0.00 73 1007.2
20260505203002 84 227 3.5 7.0 0.00 0.00 0.00 71 1007.2
20260505202003 84 221 3.5 13.0 0.00 0.00 0.00 71 1007.3
20260505201002 84 188 2.6 9.6 0.00 0.00 0.00 71 1007.4
20260505200501 84 119 2.6 9.6 0.00 0.00 0.00 71 1007.4
20260505195502 84 203 2.6 8.7 0.00 0.00 0.00 70 1007.6
20260505195004 84 187 2.6 9.6 0.00 0.00 0.00 71 1007.6
20260505194502 84 171 2.6 9.6 0.00 0.00 0.00 71 1007.7
20260505194002 84 86 2.6 7.8 0.00 0.00 0.00 71 1007.8
20260505193502 84 173 2.6 9.6 0.00 0.00 0.00 71 1007.7
20260505193004 84 128 1.7 7.0 0.00 0.00 0.00 73 1007.8
20260505192002 83 157 2.6 11.3 0.00 0.00 0.00 73 1007.9
20260505191002 83 227 1.7 9.6 0.00 0.00 0.00 73 1008.1
20260505190503 83 202 3.5 9.6 0.00 0.00 0.00 73 1008.0
20260505190003 84 201 3.5 10.4 0.00 0.00 0.00 71 1008.0
20260505184500 83 141 3.5 7.0 0.00 0.00 0.00 73 1008.1
20260505184002 83 220 3.5 8.7 0.00 0.00 0.00 72 1008.2
20260505183501 83 186 3.5 9.6 0.00 0.00 0.00 72 1008.2
20260505183001 83 215 4.3 12.2 0.00 0.00 0.00 73 1008.2
20260505182501 83 211 4.3 12.2 0.00 0.00 0.00 72 1008.2
20260505182001 83 185 3.5 10.4 0.00 0.00 0.00 72 1008.3
20260505181502 83 234 3.5 8.7 0.00 0.00 0.00 74 1008.3
20260505181001 82 199 2.6 8.7 0.00 0.00 0.00 75 1008.3
20260505180502 81 215 3.5 10.4 0.00 0.00 0.00 78 1008.4
20260505180000 80 264 3.5 13.0 0.00 0.00 0.00 78 1008.4
20260505175459 80 243 3.5 13.0 0.00 0.00 0.00 77 1008.5
20260505175000 80 255 3.5 9.6 0.00 0.00 0.00 77 1008.5
20260505174000 80 231 3.5 7.8 0.00 0.00 0.00 77 1008.6
20260505173500 80 171 4.3 9.6 0.00 0.00 0.00 77 1008.7
20260505173000 80 228 3.5 7.8 0.00 0.00 0.00 78 1008.7
20260505172500 80 231 2.6 7.0 0.00 0.00 0.00 78 1008.6
20260505172000 80 232 3.5 7.8 0.00 0.00 0.00 78 1008.6
20260505171000 80 137 4.3 8.7 0.00 0.00 0.00 77 1008.8
20260505170500 80 183 4.3 8.7 0.00 0.00 0.00 77 1008.7
20260505170001 80 190 3.5 9.6 0.00 0.00 0.00 78 1008.8
20260505165500 80 217 3.5 10.4 0.00 0.00 0.00 78 1008.8
20260505165000 79 209 4.3 10.4 0.00 0.00 0.00 78 1008.8
20260505164459 79 178 4.3 13.0 0.00 0.00 0.00 79 1008.8
20260505164000 79 161 3.5 13.0 0.00 0.00 0.00 78 1008.9
20260505163500 79 229 3.5 8.7 0.00 0.00 0.00 79 1009.0
20260505162500 79 186 3.5 7.8 0.00 0.00 0.00 78 1008.9
20260505162000 79 179 5.2 12.2 0.00 0.00 0.00 78 1008.8
20260505161001 79 225 4.3 18.2 0.00 0.00 0.00 79 1008.8
20260505153001 77 163 3.5 9.6 0.00 0.00 0.00 83 1008.9
20260505152000 76 202 2.6 8.7 0.00 0.00 0.00 85 1008.7
20260505151500 75 200 3.5 10.4 0.00 0.00 0.00 85 1008.6
20260505140459 73 177 3.5 8.7 0.00 0.00 0.00 88 1008.4
20260505124959 71 198 1.7 7.8 0.00 0.00 0.00 92 1008.2
20260505124459 71 185 2.6 8.7 0.00 0.00 0.00 92 1008.1
20260505123959 71 196 3.5 8.7 0.00 0.00 0.00 92 1008.1
20260505123459 71 193 3.5 7.0 0.00 0.00 0.00 92 1008.1
20260505123000 71 227 2.6 7.0 0.00 0.00 0.00 92 1008.1
20260505122459 71 206 1.7 7.0 0.00 0.00 0.00 92 1008.3
20260505121958 71 176 1.7 6.1 0.00 0.00 0.00 92 1008.2
20260505121459 70 146 2.6 9.6 0.00 0.00 0.00 92 1008.0
20260505120958 70 231 2.6 9.6 0.00 0.00 0.00 92 1007.8
20260505120459 70 209 1.7 4.3 0.00 0.00 0.00 92 1007.8
20260505115958 70 188 1.7 4.3 0.00 0.00 0.00 92 1007.8
20260505114959 70 191 1.7 4.3 0.00 0.00 0.00 92 1007.8
20260505114458 70 153 1.7 7.0 0.00 0.00 0.00 92 1007.8
20260505114001 70 201 1.7 6.1 0.00 0.00 0.00 92 1007.6
20260505113459 69 205 1.7 5.2 0.00 0.00 0.00 92 1007.7
20260505112459 69 210 1.7 4.3 0.00 0.00 0.00 92 1007.6
20260505112000 69 201 1.7 7.0 0.00 0.00 0.00 92 1007.7
20260505111459 69 191 1.7 3.5 0.00 0.00 0.00 92 1007.6
20260505110959 69 203 2.6 5.2 0.00 0.00 0.00 92 1007.7
20260505110459 69 181 2.6 6.1 0.00 0.00 0.00 92 1007.7